TA2DMX-13 Weather Reports


time (UTC)temp
C
wind
direction
speed
KPH
gust
KPH
rain 1hr
cm
rain 24hr
cm
rain mn
cm
humidity
%
barometer
mb
20260906083059 27 270 0.0 0.0 0.00 0.00 0.00 10 1011.6
20260906081557 27 315 0.0 0.0 0.00 0.00 0.00 10 1011.6
20260906080055 26 270 0.0 0.0 0.00 0.00 0.00 10 1011.7
20260906074552 26 225 0.0 0.0 0.00 0.00 0.00 10 1011.7
20260906073049 25 315 0.0 0.0 0.00 0.00 0.00 10 1011.7
20260906071548 26 270 0.0 0.0 0.00 0.00 0.00 10 1011.2
20260906070045 26 270 0.0 0.0 0.00 0.00 0.00 10 1011.1
20260906064543 31 225 0.0 0.0 0.00 0.00 0.00 10 1010.9
20260906054532 30 270 0.0 0.0 0.00 0.00 0.00 10 1010.6
20260906053027 24 270 0.0 0.0 0.00 0.00 0.00 10 1010.9
20260906051525 27 0 0.0 0.0 0.00 0.00 0.00 10 1010.5
20260906050025 31 270 0.0 0.0 0.00 0.00 0.00 10 1010.4
20260906044521 21 315 0.0 0.0 0.00 0.00 0.00 10 1011.1
20260906041514 20 315 0.0 0.0 0.00 0.00 0.00 10 1011.0
20260906034509 20 315 0.0 0.0 0.00 0.00 0.00 10 1010.6
20260906033007 20 315 0.0 0.0 0.00 0.00 0.00 10 1010.4
20260906031504 20 270 0.0 0.0 0.00 0.00 0.00 10 1010.5
20260906025947 20 270 0.0 0.0 0.00 0.00 0.00 10 1010.4
20260906024343 20 270 0.0 0.0 0.00 0.00 0.00 10 1010.5
20260906022739 20 270 0.0 0.0 0.00 0.00 0.00 10 1010.1
20260906021136 20 270 0.0 0.0 0.00 0.00 0.00 10 1010.2
20260906015534 20 270 0.0 0.0 0.00 0.00 0.00 10 1010.2
20260906013930 20 270 0.0 0.0 0.00 0.00 0.00 10 1010.3
20260906012328 21 270 0.0 0.0 0.00 0.00 0.00 10 1010.2
20260906010725 20 0 0.0 0.0 0.00 0.00 0.00 10 1010.1
20260906005122 20 315 0.0 0.0 0.00 0.00 0.00 10 1010.1
20260906003519 21 270 0.0 0.0 0.00 0.00 0.00 10 1010.0
20260906000413 21 315 0.0 0.0 0.00 0.00 0.00 10 1010.0
20260905234810 21 270 0.0 0.0 0.00 0.00 0.00 10 1009.9
20260905233207 21 0 0.0 0.0 0.00 0.00 0.00 10 1010.1
20260905224600 22 270 0.0 0.0 0.00 0.00 0.00 10 1010.0
20260905223057 22 315 0.0 0.0 0.00 0.00 0.00 10 1010.1
20260905221554 22 225 0.0 0.0 0.00 0.00 0.00 10 1010.2
20260905220052 22 270 0.0 0.0 0.00 0.00 0.00 10 1010.2
20260905214548 22 270 0.0 0.0 0.00 0.00 0.00 10 1010.3
20260905213046 22 270 0.0 0.0 0.00 0.00 0.00 10 1010.4
20260905211543 22 0 0.0 0.0 0.00 0.00 0.00 10 1010.4
20260905210041 22 270 0.0 0.0 0.00 0.00 0.00 10 1010.4
20260905204538 22 270 0.0 0.0 0.00 0.00 0.00 10 1010.6
20260905203036 22 0 0.0 0.0 0.00 0.00 0.00 10 1010.7
20260905200031 23 225 0.0 0.0 0.00 0.00 0.00 10 1010.7
20260905194528 23 0 0.0 0.0 0.00 0.00 0.00 10 1010.8
20260905191522 23 225 0.0 0.0 0.00 0.00 0.00 10 1010.7
20260905190021 23 225 0.0 0.0 0.00 0.00 0.00 10 1010.7
20260905184517 23 270 0.0 0.0 0.00 0.00 0.00 10 1010.7
20260905183015 24 0 0.0 0.0 0.00 0.00 0.00 10 1010.7
20260905181511 23 225 0.0 0.0 0.00 0.00 0.00 10 1010.8
20260905180009 24 270 0.0 0.0 0.00 0.00 0.00 10 1010.6
20260905174507 24 45 0.0 0.0 0.00 0.00 0.00 10 1010.4
20260905173005 25 315 0.0 0.0 0.00 0.00 0.00 10 1010.1
20260905171440 25 315 0.0 0.0 0.00 0.00 0.00 10 1010.0
20260905165836 25 315 0.0 0.0 0.00 0.00 0.00 10 1009.8
20260905164232 26 270 0.0 0.0 0.00 0.00 0.00 10 1009.6
20260905162630 26 225 0.0 0.0 0.00 0.00 0.00 10 1009.4
20260905161027 27 270 0.0 0.0 0.00 0.00 0.00 93 1009.5
20260905155424 27 0 0.0 0.0 0.00 0.00 0.00 83 1009.5
20260905153822 27 0 0.0 0.0 0.00 0.00 0.00 78 1009.5
20260905152218 27 270 0.0 0.0 0.00 0.00 0.00 70 1009.5
20260905150615 28 270 0.0 0.0 0.00 0.00 0.00 67 1009.5
20260905145013 28 270 0.0 0.0 0.00 0.00 0.00 63 1009.6
20260905143409 30 270 0.0 0.0 0.00 0.00 0.00 62 1009.5
20260905141807 28 270 0.0 0.0 0.00 0.00 0.00 62 1009.5
20260905140203 28 315 0.0 0.0 0.00 0.00 0.00 66 1009.6
20260905134601 29 270 0.0 0.0 0.00 0.00 0.00 62 1009.7
20260905133057 29 270 0.0 0.0 0.00 0.00 0.00 59 1009.8
20260905131555 29 225 0.0 0.0 0.00 0.00 0.00 57 1009.8
20260905130052 29 270 0.0 0.0 0.00 0.00 0.00 63 1009.9
20260905124551 30 270 0.0 0.0 0.00 0.00 0.00 69 1010.0
20260905123048 29 225 0.0 0.0 0.00 0.00 0.00 68 1010.1
20260905121546 30 270 0.0 0.0 0.00 0.00 0.00 68 1010.1
20260905120043 30 270 0.0 0.0 0.00 0.00 0.00 65 1010.2
20260905113038 31 225 0.0 0.0 0.00 0.00 0.00 54 1010.3
20260905111535 31 270 0.0 0.0 0.00 0.00 0.00 43 1010.7
20260905110032 33 225 0.0 0.0 0.00 0.00 0.00 38 1010.7
20260905104530 35 315 0.0 0.0 0.00 0.00 0.00 39 1010.8
20260905103027 36 270 0.0 0.0 0.00 0.00 0.00 41 1010.7
20260905101524 33 0 0.0 0.0 0.00 0.00 0.00 52 1010.8
20260905094521 33 270 0.0 0.0 0.00 0.00 0.00 63 1010.8
20260905093020 35 270 0.0 0.0 0.00 0.00 0.00 55 1010.9
20260905090015 30 315 0.0 0.0 0.00 0.00 0.00 91 1011.3
20260905084510 27 225 0.0 0.0 0.00 0.00 0.00 10 1011.4